TimeCST,TemperatureF,Dew PointF,Humidity,Sea Level PressureIn,VisibilityMPH,Wind Direction,Wind SpeedMPH,Gust SpeedMPH,PrecipitationIn,Events,Conditions,WindDirDegrees,DateUTC
12:15 AM,50.0,33.8,54,30.21,10.0,ESE,4.6,-,N/A,,Clear,120,2013-03-08 06:15:00
12:35 AM,50.0,33.8,54,30.21,10.0,ESE,5.8,-,N/A,,Clear,120,2013-03-08 06:35:00
12:55 AM,46.4,33.8,62,30.21,10.0,SE,5.8,-,N/A,,Clear,130,2013-03-08 06:55:00
1:15 AM,46.4,35.6,66,30.20,10.0,ESE,6.9,-,N/A,,Clear,110,2013-03-08 07:15:00
1:35 AM,48.2,33.8,58,30.21,10.0,ESE,5.8,-,N/A,,Clear,120,2013-03-08 07:35:00
1:55 AM,48.2,33.8,58,30.21,10.0,ESE,5.8,-,N/A,,Clear,110,2013-03-08 07:55:00
2:15 AM,46.4,35.6,66,30.20,10.0,ESE,6.9,-,N/A,,Clear,110,2013-03-08 08:15:00
2:35 AM,44.6,33.8,66,30.20,10.0,East,5.8,-,N/A,,Clear,100,2013-03-08 08:35:00
2:55 AM,44.6,35.6,71,30.20,10.0,ESE,4.6,-,N/A,,Clear,120,2013-03-08 08:55:00
3:15 AM,44.6,35.6,71,30.20,10.0,ESE,4.6,-,N/A,,Clear,110,2013-03-08 09:15:00
3:35 AM,44.6,35.6,71,30.20,10.0,ESE,3.5,-,N/A,,Clear,120,2013-03-08 09:35:00
3:55 AM,44.6,35.6,71,30.20,10.0,ESE,3.5,-,N/A,,Clear,120,2013-03-08 09:55:00
4:15 AM,44.6,35.6,71,30.21,10.0,Calm,Calm,-,N/A,,Clear,0,2013-03-08 10:15:00
4:35 AM,44.6,35.6,71,30.20,10.0,East,3.5,-,N/A,,Clear,80,2013-03-08 10:35:00
4:55 AM,44.6,35.6,71,30.21,10.0,Calm,Calm,-,N/A,,Clear,0,2013-03-08 10:55:00
5:15 AM,44.6,35.6,71,30.23,10.0,East,3.5,-,N/A,,Clear,90,2013-03-08 11:15:00
5:35 AM,44.6,35.6,71,30.22,10.0,East,3.5,-,N/A,,Clear,80,2013-03-08 11:35:00
5:55 AM,42.8,35.6,76,30.23,10.0,ENE,4.6,-,N/A,,Clear,70,2013-03-08 11:55:00
6:15 AM,42.8,35.6,76,30.23,10.0,ENE,3.5,-,N/A,,Clear,60,2013-03-08 12:15:00
6:35 AM,42.8,35.6,76,30.24,10.0,NE,5.8,-,N/A,,Clear,50,2013-03-08 12:35:00
6:55 AM,42.8,37.4,81,30.24,10.0,NE,5.8,-,N/A,,Clear,50,2013-03-08 12:55:00
7:15 AM,42.8,37.4,81,30.24,10.0,NE,5.8,-,N/A,,Clear,50,2013-03-08 13:15:00
7:35 AM,44.6,37.4,76,30.25,10.0,ENE,3.5,-,N/A,,Clear,70,2013-03-08 13:35:00
7:55 AM,46.4,39.2,76,30.25,10.0,East,6.9,-,N/A,,Clear,100,2013-03-08 13:55:00
8:15 AM,50.0,39.2,66,30.26,10.0,East,4.6,-,N/A,,Clear,100,2013-03-08 14:15:00
8:35 AM,50.0,39.2,66,30.26,10.0,ESE,5.8,-,N/A,,Clear,110,2013-03-08 14:35:00
8:55 AM,51.8,39.2,62,30.27,10.0,ESE,6.9,-,N/A,,Scattered Clouds,120,2013-03-08 14:55:00
9:15 AM,53.6,39.2,58,30.27,10.0,ESE,9.2,-,N/A,,Scattered Clouds,110,2013-03-08 15:15:00
9:35 AM,53.6,37.4,54,30.27,10.0,ESE,10.4,-,N/A,,Scattered Clouds,110,2013-03-08 15:35:00
9:55 AM,55.4,39.2,54,30.27,10.0,East,9.2,-,N/A,,Scattered Clouds,100,2013-03-08 15:55:00
10:15 AM,55.4,37.4,51,30.28,10.0,SE,8.1,-,N/A,,Scattered Clouds,130,2013-03-08 16:15:00
10:35 AM,55.4,39.2,54,30.28,10.0,SE,10.4,-,N/A,,Mostly Cloudy,130,2013-03-08 16:35:00
10:55 AM,57.2,39.2,51,30.28,10.0,ESE,8.1,-,N/A,,Overcast,120,2013-03-08 16:55:00
11:15 AM,59.0,37.4,45,30.27,10.0,ESE,10.4,-,N/A,,Mostly Cloudy,120,2013-03-08 17:15:00
11:35 AM,60.8,37.4,42,30.26,10.0,East,11.5,-,N/A,,Scattered Clouds,100,2013-03-08 17:35:00
11:55 AM,60.8,37.4,42,30.25,10.0,ESE,13.8,-,N/A,,Scattered Clouds,110,2013-03-08 17:55:00
12:15 PM,62.6,37.4,39,30.23,10.0,ESE,11.5,-,N/A,,Scattered Clouds,120,2013-03-08 18:15:00
12:35 PM,62.6,37.4,39,30.22,10.0,ESE,10.4,-,N/A,,Clear,110,2013-03-08 18:35:00
12:55 PM,64.4,33.8,32,30.21,10.0,ESE,11.5,16.1,N/A,,Scattered Clouds,120,2013-03-08 18:55:00
1:15 PM,66.2,33.8,30,30.19,10.0,SE,10.4,16.1,N/A,,Mostly Cloudy,130,2013-03-08 19:15:00
1:35 PM,66.2,33.8,30,30.18,10.0,East,10.4,18.4,N/A,,Scattered Clouds,100,2013-03-08 19:35:00
1:55 PM,68.0,33.8,28,30.16,10.0,SE,10.4,18.4,N/A,,Scattered Clouds,130,2013-03-08 19:55:00
2:15 PM,68.0,35.6,30,30.15,10.0,SE,9.2,-,N/A,,Scattered Clouds,130,2013-03-08 20:15:00
2:35 PM,68.0,35.6,30,30.15,10.0,East,10.4,17.3,N/A,,Clear,100,2013-03-08 20:35:00
2:55 PM,68.0,35.6,30,30.14,10.0,East,10.4,-,N/A,,Clear,100,2013-03-08 20:55:00
3:15 PM,68.0,35.6,30,30.13,10.0,SE,11.5,-,N/A,,Clear,130,2013-03-08 21:15:00
3:35 PM,68.0,35.6,30,30.12,10.0,ESE,10.4,16.1,N/A,,Clear,110,2013-03-08 21:35:00
3:55 PM,68.0,35.6,30,30.12,10.0,ESE,10.4,16.1,N/A,,Scattered Clouds,110,2013-03-08 21:55:00
4:15 PM,66.2,35.6,32,30.11,10.0,East,10.4,-,N/A,,Scattered Clouds,100,2013-03-08 22:15:00
4:35 PM,66.2,35.6,32,30.12,10.0,ESE,6.9,-,N/A,,Scattered Clouds,120,2013-03-08 22:35:00
4:55 PM,66.2,37.4,35,30.12,10.0,ESE,6.9,-,N/A,,Mostly Cloudy,110,2013-03-08 22:55:00
5:15 PM,66.2,37.4,35,30.11,10.0,ESE,9.2,-,N/A,,Mostly Cloudy,110,2013-03-08 23:15:00
5:35 PM,64.4,35.6,34,30.12,10.0,ESE,9.2,-,N/A,,Mostly Cloudy,120,2013-03-08 23:35:00
5:55 PM,64.4,35.6,34,30.12,10.0,ESE,6.9,-,N/A,,Mostly Cloudy,110,2013-03-08 23:55:00
6:15 PM,64.4,35.6,34,30.12,10.0,ESE,6.9,-,N/A,,Overcast,110,2013-03-09 00:15:00
6:35 PM,64.4,35.6,34,30.11,10.0,East,9.2,-,N/A,,Mostly Cloudy,100,2013-03-09 00:35:00
6:55 PM,64.4,35.6,34,30.10,10.0,East,11.5,-,N/A,,Mostly Cloudy,100,2013-03-09 00:55:00
7:15 PM,62.6,37.4,39,30.10,10.0,ESE,10.4,-,N/A,,Scattered Clouds,110,2013-03-09 01:15:00
7:35 PM,62.6,37.4,39,30.10,10.0,ESE,9.2,-,N/A,,Clear,110,2013-03-09 01:35:00
7:55 PM,62.6,35.6,37,30.11,10.0,ESE,9.2,-,N/A,,Scattered Clouds,120,2013-03-09 01:55:00
8:15 PM,62.6,37.4,39,30.11,10.0,ESE,8.1,-,N/A,,Mostly Cloudy,110,2013-03-09 02:15:00
8:35 PM,62.6,37.4,39,30.11,10.0,ESE,9.2,-,N/A,,Mostly Cloudy,120,2013-03-09 02:35:00
8:55 PM,62.6,37.4,39,30.10,10.0,ESE,9.2,-,N/A,,Mostly Cloudy,110,2013-03-09 02:55:00
9:15 PM,62.6,35.6,37,30.11,10.0,ESE,6.9,-,N/A,,Mostly Cloudy,120,2013-03-09 03:15:00
9:35 PM,62.6,37.4,39,30.12,10.0,SE,4.6,-,N/A,,Mostly Cloudy,130,2013-03-09 03:35:00
9:55 PM,60.8,37.4,42,30.11,10.0,SE,6.9,-,N/A,,Mostly Cloudy,130,2013-03-09 03:55:00
10:15 PM,62.6,37.4,39,30.11,10.0,SE,8.1,-,N/A,,Mostly Cloudy,130,2013-03-09 04:15:00
10:35 PM,62.6,37.4,39,30.11,10.0,ESE,9.2,-,N/A,,Mostly Cloudy,120,2013-03-09 04:35:00
10:55 PM,60.8,37.4,42,30.10,10.0,ESE,8.1,-,N/A,,Scattered Clouds,120,2013-03-09 04:55:00
11:15 PM,62.6,37.4,39,30.09,10.0,SE,9.2,-,N/A,,Mostly Cloudy,130,2013-03-09 05:15:00
11:35 PM,60.8,39.2,45,30.08,10.0,ESE,8.1,-,N/A,,Scattered Clouds,120,2013-03-09 05:35:00
11:55 PM,59.0,39.2,48,30.08,10.0,ESE,9.2,-,N/A,,Scattered Clouds,120,2013-03-09 05:55:00